FENGYUN 1C DEB, 36148

Orbit data source: Space-Track

FENGYUN 1C DEB, 36148 is space debris in SSO originally from a launch on Mon, 10 May 1999 UTC launched from the Taiyaun Space Center, China (TSC). Fengyun 1C debris stems from the Chinese weather satellite Fengyun-1C, which was intentionally destroyed by a Chinese anti-satellite missile in 2007. This event dramatically increased the amount of space debris, with thousands of trackable fragments posing hazards to satellites and human spaceflight. The Fengyun 1C debris cloud has become a focal point in discussions about space sustainability and the need for international regulations to prevent the creation of new debris.

Loading next visibility...
Identifier
36148, 1999-025DRV
Orbit
SSO
Country
Flag of CNCN / PRC
Related business
Manufacturer
Unknown
Mission
Spacecraft
Bus & Motor
Unknown
Mass
Unknown
Launch date (UTC)
1999-05-10 (27 years ago)
Launch vehicle
Unknown
Launch site
Taiyaun Space Center, China (TSC)
Object type
Payload
Rocket body
Debris
Shape & HBR
Unknown shape, 0.1 m
Radar Cross Section
Small (<0.1 m²)

Expand to show TLE details & history
Last TLE update: 2 weeks ago

TLE from 2 weeks ago
0 FENGYUN 1C DEB
1 36148U 99025DRV 26147.78861034  .00003820  00000-0  24803-2 0  9996
2 36148  98.4178 347.1867 0273111 254.0386 103.0529 13.86487023925446
Epoch: 2026-05-27T18:55Z
TLE epoch observation values (Epoch: 2026-05-27T18:55:35.933Z)
Latitude
-0.00003°
Longitude
177.94432°
Altitude
994.133 km
Speed
7.329 km/s
True Right ascension
23h 08m 44s
True Declination
0° 00' 00"
Sunlit
Object was in daylight at epoch
Visualization orbit readout
Latitude
Unknown
Longitude
Unknown
Altitude
Unknown
Speed
Unknown
Apparent Right ascension
Unknown
Apparent Declination
Unknown
Sunlit
N/A
Visualization observer readout
Local Sidereal Time
18:42:11
Azimuth
Unknown
Elevation
Unknown
Doppler factor
Unknown
Orbital elements
Apogee altitude
1,137.971 km
Perigee altitude
738.339 km
Semi-major axis
7,316.292 km
Eccentricity
0.02731
Inclination
98.4178°
RAAN
347.1867°
Arg. of periapsis
254.0386°
True anomaly
106.07692°
Mean anomaly
103.0529°
Eccentric anomaly
104.56741°
Mean motion
3.46822 °/min
Orbital period
103.8 mins
BSTAR
0.0024803
Loading maneuver chart data...
Computing Atmospheric mass density...

Documentation

Showing up to 5 results
|